Location: Koussan�
(15.2012°N, 12.5548°W)
Time: 16:41:35
(UTC+00:00)

IRS-P2 Rocket - Pass Details

Date: 20 October 2020
Orbit: 794 x 876 km, 99.1° (Epoch: 29 November)

Event Time Altitude Azimuth Distance (km) Brightness Sun altitude
Rises 19:33:07 0° 163° (SSE) 3,303 7.7 -16.7°
Reaches altitude 10° 19:35:28 10° 161° (SSE) 2,366 6.9 -17.2°
Maximum altitude 19:40:40 75° 76° (ENE) 821 4.4 -18.5°
Drops below altitude 10° 19:45:50 10° 352° (N) 2,357 7.0 -19.7°
Sets 19:48:10 0° 350° (N) 3,290 7.8 -20.3°
